TimeEDT,TemperatureF,Dew PointF,Humidity,Sea Level PressureIn,VisibilityMPH,Wind Direction,Wind SpeedMPH,Gust SpeedMPH,PrecipitationIn,Events,Conditions,WindDirDegrees,DateUTC
12:15 AM,66.7,62.6,86,29.96,10.0,SSW,4.6,-,N/A,,Clear,210,2013-08-20 04:15:00
12:35 AM,66.6,62.6,87,29.96,10.0,SSW,4.6,-,N/A,,Clear,200,2013-08-20 04:35:00
12:56 AM,66.4,62.6,88,29.96,10.0,SSW,4.6,-,N/A,,Clear,200,2013-08-20 04:56:00
1:15 AM,66.2,62.6,88,29.96,10.0,South,5.8,-,N/A,,Clear,190,2013-08-20 05:15:00
1:36 AM,66.2,62.6,88,29.96,10.0,SSW,3.5,-,N/A,,Clear,200,2013-08-20 05:36:00
1:55 AM,65.3,62.1,89,29.96,7.0,SSW,4.6,-,N/A,,Clear,200,2013-08-20 05:55:00
2:16 AM,64.8,62.1,91,29.96,7.0,Calm,Calm,-,N/A,,Clear,0,2013-08-20 06:16:00
2:35 AM,64.6,61.9,91,29.96,7.0,South,4.6,-,N/A,,Clear,190,2013-08-20 06:35:00
2:56 AM,64.0,61.7,92,29.95,7.0,SSW,3.5,-,N/A,,Clear,200,2013-08-20 06:56:00
3:15 AM,64.4,61.9,92,29.96,7.0,South,3.5,-,N/A,,Clear,190,2013-08-20 07:15:00
3:35 AM,63.5,61.3,93,29.96,5.0,SSW,3.5,-,N/A,,Clear,200,2013-08-20 07:35:00
3:56 AM,62.8,61.0,94,29.96,5.0,SSW,3.5,-,N/A,,Clear,200,2013-08-20 07:56:00
4:15 AM,62.8,61.0,94,29.96,5.0,South,4.6,-,N/A,,Clear,190,2013-08-20 08:15:00
4:36 AM,62.8,61.0,94,29.96,5.0,South,4.6,-,N/A,,Clear,190,2013-08-20 08:36:00
4:54 AM,63.3,61.3,93,29.97,5.0,South,4.6,-,N/A,,Clear,190,2013-08-20 08:54:00
5:15 AM,63.0,61.2,94,29.97,5.0,SSW,3.5,-,N/A,,Clear,200,2013-08-20 09:15:00
5:35 AM,62.8,61.2,94,29.97,5.0,SSW,3.5,-,N/A,,Clear,200,2013-08-20 09:35:00
5:56 AM,62.8,61.2,94,29.97,5.0,SSW,4.6,-,N/A,,Clear,200,2013-08-20 09:56:00
6:55 AM,62.6,60.8,94,29.99,4.0,SSW,3.5,-,N/A,,Clear,200,2013-08-20 10:55:00
7:50 AM,62.6,60.8,94,30.00,4.0,South,3.5,-,N/A,,Clear,190,2013-08-20 11:50:00
8:50 AM,66.2,62.6,88,30.01,7.0,SSW,4.6,-,N/A,,Clear,210,2013-08-20 12:50:00
9:50 AM,71.6,64.4,78,30.00,10.0,WSW,8.1,-,N/A,,Clear,240,2013-08-20 13:50:00
10:50 AM,75.2,64.4,69,30.00,10.0,SSW,11.5,-,N/A,,Clear,200,2013-08-20 14:50:00
12:50 PM,82.4,66.2,58,29.99,10.0,SW,16.1,-,N/A,,Clear,230,2013-08-20 16:50:00
1:50 PM,84.2,64.4,51,29.97,10.0,SW,12.7,-,N/A,,Scattered Clouds,230,2013-08-20 17:50:00
2:50 PM,84.2,64.4,51,29.96,10.0,SSW,13.8,21.9,N/A,,Scattered Clouds,210,2013-08-20 18:50:00
3:50 PM,84.2,62.6,48,29.95,10.0,SSW,15.0,21.9,N/A,,Scattered Clouds,210,2013-08-20 19:50:00
4:50 PM,86.0,62.6,45,29.94,10.0,SSW,17.3,20.7,N/A,,Scattered Clouds,210,2013-08-20 20:50:00
5:50 PM,86.0,64.4,48,29.94,10.0,SW,11.5,23.0,N/A,,Scattered Clouds,220,2013-08-20 21:50:00
6:50 PM,84.2,64.4,51,29.94,10.0,SSW,15.0,21.9,N/A,,Clear,210,2013-08-20 22:50:00
7:50 PM,73.4,68.0,83,29.93,10.0,SSW,12.7,20.7,N/A,,Clear,210,2013-08-20 23:50:00
8:50 PM,78.8,66.2,65,29.93,10.0,SSW,9.2,-,N/A,,Clear,200,2013-08-21 00:50:00
9:50 PM,75.2,66.2,73,29.94,10.0,South,9.2,-,N/A,,Clear,190,2013-08-21 01:50:00
10:15 PM,74.8,65.7,73,29.96,10.0,South,9.2,-,N/A,,Clear,190,2013-08-21 02:15:00
10:36 PM,73.9,65.8,76,29.96,10.0,South,10.4,-,N/A,,Clear,190,2013-08-21 02:36:00
10:55 PM,73.4,65.8,77,29.96,10.0,South,10.4,-,N/A,,Clear,180,2013-08-21 02:55:00
11:16 PM,72.5,65.8,80,29.96,10.0,South,10.4,-,N/A,,Clear,190,2013-08-21 03:16:00
11:35 PM,71.8,65.7,81,29.96,10.0,South,9.2,-,N/A,,Clear,190,2013-08-21 03:35:00
11:55 PM,71.2,65.7,82,29.96,10.0,South,10.4,-,N/A,,Clear,190,2013-08-21 03:55:00